DW7076 Floda SE current weather conditions

sailwx.info

Wind from 089 at 3 knots gusting 10

Air temperature 11.1° C
Dewpoint 4.8° C

Last reported at 2014-Sep-22 11:56 UTC.
Time now 2014-Sep-22 12:15 UTC

Location: N 57°49' E 012°21'.
View on Google Maps.

See reports from other nearby stations

  
Tides and Currents Weather Stations Pressure Air Temp Water Temp Dewpoint Dewpoint Depression Visibility Wind Speed Wind Dir Waves Ship Positions
date/time (UTC)wind fromknots sea level pressurealtimeterstation pressurevisibilityair tempwater tempwave heightnotes
2014-Sep-22 11:56 089 3 gusting 10 11.1
2014-Sep-22 11:46 063 3 gusting 7 11.1
2014-Sep-22 11:36 046 2 gusting 7 11.1
2014-Sep-22 11:26 064 5 gusting 10 10.6
2014-Sep-22 11:16 043 1 gusting 6 10.0
2014-Sep-22 11:06 063 2 gusting 8 10.0
2014-Sep-22 10:56 068 4 gusting 11 9.4
2014-Sep-22 10:46 060 4 gusting 12 8.9
2014-Sep-22 10:36 029 1 gusting 7 8.9
2014-Sep-22 10:26 291 1 gusting 12 8.3
2014-Sep-22 10:16 031 2 gusting 10 8.3
2014-Sep-22 10:06 351 2 gusting 7 8.3
2014-Sep-22 09:56 046 2 gusting 11 8.3
2014-Sep-22 09:46 078 1 gusting 15 8.3
2014-Sep-22 09:36 327 2 gusting 6 8.3
2014-Sep-22 09:26 010 2 gusting 5 8.3
2014-Sep-22 09:16 306 1 gusting 8 7.8
2014-Sep-22 09:06 025 3 gusting 13 7.8
2014-Sep-22 08:56 072 1 gusting 6 7.8
2014-Sep-22 08:46 255 0 gusting 7 7.8
2014-Sep-22 08:36 314 1 gusting 7 7.2
2014-Sep-22 08:26 031 1 gusting 11 7.2
2014-Sep-22 08:16 023 1 gusting 6 7.2
2014-Sep-22 08:06 334 1 gusting 13 7.2
2014-Sep-22 07:56 355 1 gusting 13 6.7
2014-Sep-22 07:46 026 1 gusting 10 6.7
2014-Sep-22 07:36 293 2 gusting 8 6.7
2014-Sep-22 07:26 350 1 gusting 10 6.7
2014-Sep-22 07:16 031 2 gusting 6 6.7
2014-Sep-22 07:06 6.7
2014-Sep-22 06:56 030 0 gusting 8 6.7
2014-Sep-22 06:46 013 1 gusting 10 6.7
2014-Sep-22 06:36 310 4 gusting 10 6.7
2014-Sep-22 06:26 334 3 gusting 12 6.7
2014-Sep-22 06:16 311 1 gusting 8 6.7
2014-Sep-22 06:06 008 1 gusting 10 6.7
2014-Sep-22 05:56 331 3 gusting 10 6.7
2014-Sep-22 05:46 332 1 gusting 13 6.7
2014-Sep-22 05:36 093 2 gusting 10 6.7
2014-Sep-22 05:26 324 4 gusting 8 6.7
2014-Sep-22 05:16 312 2 gusting 8 6.7
2014-Sep-22 05:06 339 2 gusting 8 6.7
2014-Sep-22 04:56 319 5 gusting 10 6.7
2014-Sep-22 04:46 324 2 gusting 14 6.7
2014-Sep-22 04:36 339 2 gusting 12 6.7
2014-Sep-22 04:26 343 3 gusting 10 6.1
2014-Sep-22 04:16 301 2 gusting 11 6.7
2014-Sep-22 04:06 326 1 gusting 10 6.7
2014-Sep-22 03:56 333 3 gusting 11 6.7
2014-Sep-22 03:46 321 4 gusting 10 6.7
2014-Sep-22 03:36 013 2 gusting 8 7.2
2014-Sep-22 03:26 315 2 gusting 10 7.2
2014-Sep-22 03:16 347 4 gusting 13 7.2
2014-Sep-22 03:06 328 5 gusting 10 7.2
2014-Sep-22 02:56 7.2
2014-Sep-22 02:46 321 3 gusting 10 7.8
2014-Sep-22 02:36 338 5 gusting 12 7.8
2014-Sep-22 02:26 320 4 gusting 12 7.8
2014-Sep-22 02:16 332 2 gusting 8 7.8
2014-Sep-22 02:06 344 3 gusting 10 7.8
2014-Sep-22 01:56 306 1 gusting 11 7.8
2014-Sep-22 01:46 342 1 gusting 6 7.8
2014-Sep-22 01:36 315 1 gusting 10 7.8
2014-Sep-22 01:26 356 2 gusting 10 7.8
2014-Sep-22 01:16 296 4 gusting 11 7.8
2014-Sep-22 01:06 330 4 gusting 10 7.8
2014-Sep-22 00:56 317 3 gusting 8 7.8
2014-Sep-22 00:46 328 2 gusting 11 7.8
2014-Sep-22 00:36 328 7 gusting 13 7.8
2014-Sep-22 00:26 337 5 gusting 11 8.3
2014-Sep-22 00:16 324 4 gusting 12 8.3
2014-Sep-22 00:06 316 4 gusting 11 8.3
2014-Sep-21 23:56 327 2 gusting 12 8.3
2014-Sep-21 23:46 315 4 gusting 11 8.3
2014-Sep-21 23:36 316 5 gusting 11 8.3
2014-Sep-21 23:26 326 5 gusting 11 8.9
2014-Sep-21 23:16 324 4 gusting 13 8.9
2014-Sep-21 23:06 352 2 gusting 8 8.9
2014-Sep-21 22:56 312 1 gusting 10 8.9
2014-Sep-21 22:46 319 4 gusting 7 8.9
2014-Sep-21 22:36 325 2 gusting 10 8.9
2014-Sep-21 22:26 337 1 gusting 7 8.9
2014-Sep-21 22:16 306 0 gusting 4 8.9
2014-Sep-21 22:06 315 0 gusting 2 8.9
2014-Sep-21 21:56 315 0 gusting 5 8.9
2014-Sep-21 21:46 345 0 gusting 7 8.9
2014-Sep-21 21:36 297 0 gusting 6 9.4
2014-Sep-21 21:26 339 2 gusting 8 9.4
2014-Sep-21 21:16 033 0 gusting 10 9.4
2014-Sep-21 21:06 063 2 gusting 10 9.4
2014-Sep-21 20:56 008 0 gusting 8 9.4
2014-Sep-21 20:46 337 1 gusting 7 10.0
2014-Sep-21 20:36 349 2 gusting 6 10.0
2014-Sep-21 20:26 324 2 gusting 7 10.0
2014-Sep-21 20:16 324 10.0
2014-Sep-21 20:06 348 1 gusting 8 10.0
2014-Sep-21 19:56 319 0 gusting 10 10.0
2014-Sep-21 19:46 329 3 gusting 12 10.0
2014-Sep-21 19:36 114 0 gusting 12 10.0
2014-Sep-21 19:26 046 0 gusting 12 10.6
2014-Sep-21 19:16 294 1 gusting 12 10.6
2014-Sep-21 19:06 350 1 gusting 7 10.6
2014-Sep-21 13:56 344 6 gusting 13 16.7
2014-Sep-21 13:46 336 2 gusting 5 17.2
2014-Sep-21 13:36 277 2 gusting 6 17.2
2014-Sep-21 13:26 230 4 gusting 6 17.2
2014-Sep-21 13:16 302 1 gusting 4 16.7
2014-Sep-21 13:06 302 1 gusting 6 16.7
2014-Sep-21 12:56 248 1 gusting 2 16.7
2014-Sep-21 12:46 307 1 gusting 5 16.7
2014-Sep-21 12:36 244 0 gusting 7 17.2
2014-Sep-21 12:26 348 2 gusting 11 17.2
2014-Sep-21 12:16 309 1 gusting 6 17.2
2014-Sep-21 12:06 231 1 gusting 6 16.7
2014-Sep-21 11:56 328 1 gusting 8 17.2
2014-Sep-21 11:46 235 1 gusting 8 16.7
2014-Sep-21 11:36 290 1 gusting 5 16.7
2014-Sep-21 11:26 172 1 gusting 7 16.7
2014-Sep-21 11:16 219 0 gusting 6 17.2
2014-Sep-21 11:06 181 3 gusting 7 16.7
2014-Sep-21 10:56 350 0 gusting 6 16.7
2014-Sep-21 10:46 323 0 gusting 4 16.1
2014-Sep-21 10:36 315 15.6
2014-Sep-21 10:26 225 0 gusting 4 15.6
2014-Sep-21 10:16 225 15.6
2014-Sep-21 10:06 178 15.6
2014-Sep-21 09:56 173 0 gusting 2 15.6
2014-Sep-21 09:46 221 0 gusting 4 15.6
2014-Sep-21 09:36 157 2 gusting 6 15.6
2014-Sep-21 09:26 208 2 gusting 6 15.6
2014-Sep-21 09:16 153 0 gusting 2 15.0
2014-Sep-21 09:06 205 0 gusting 5 14.4
2014-Sep-21 08:56 286 14.4
2014-Sep-21 08:46 210 1 gusting 2 13.9
2014-Sep-21 08:36 165 0 gusting 1 13.9
2014-Sep-21 08:26 165 13.3
2014-Sep-21 08:16 165 13.3
2014-Sep-21 08:06 165 13.3
2014-Sep-21 07:56 165 13.3
2014-Sep-21 07:46 166 13.3
2014-Sep-21 07:36 266 0 gusting 2 13.3
2014-Sep-21 07:26 312 13.3
2014-Sep-21 07:16 298 0 gusting 2 13.3
2014-Sep-21 07:06 300 12.8
2014-Sep-21 06:56 300 12.8
2014-Sep-21 06:46 300 0 gusting 1 12.8
2014-Sep-21 06:36 300 12.8
2014-Sep-21 06:26 300 12.8
2014-Sep-21 06:16 300 12.8
2014-Sep-21 06:06 300 12.8
2014-Sep-21 05:56 300 12.2
2014-Sep-21 05:46 300 12.2
2014-Sep-21 05:36 300 12.2
2014-Sep-21 05:26 300 12.2
2014-Sep-21 05:16 300 12.2
2014-Sep-21 05:06 300 12.2
2014-Sep-21 04:56 300 12.2
2014-Sep-21 04:46 300 12.2
2014-Sep-21 04:36 300 12.2
2014-Sep-21 04:26 300 12.2
2014-Sep-21 04:16 300 12.2
2014-Sep-21 04:06 300 11.7
2014-Sep-21 03:56 300 11.7
2014-Sep-21 03:46 300 11.7
2014-Sep-21 03:36 300 11.7
2014-Sep-21 03:26 300 11.7
2014-Sep-21 03:16 300 11.7
2014-Sep-21 03:06 300 11.1
2014-Sep-21 02:56 300 11.1
2014-Sep-21 02:46 300 11.1
2014-Sep-21 02:36 300 11.1
2014-Sep-21 02:26 300 11.1
2014-Sep-21 02:16 300 10.6
2014-Sep-21 02:06 300 10.6
2014-Sep-21 01:56 300 10.6
2014-Sep-21 01:46 300 10.6
2014-Sep-21 01:36 300 10.6
2014-Sep-21 01:26 300 10.0
2014-Sep-21 01:16 300 10.0
2014-Sep-21 01:06 300 10.0
2014-Sep-21 00:56 300 10.0
2014-Sep-21 00:46 300 10.0
2014-Sep-21 00:36 300 10.0
2014-Sep-21 00:26 300 10.0
2014-Sep-21 00:16 300 10.0
2014-Sep-21 00:06 300 10.0
2014-Sep-20 23:56 300 9.4
2014-Sep-20 23:46 300 10.0
2014-Sep-20 23:36 300 10.0
2014-Sep-20 23:26 300 10.0
2014-Sep-20 23:16 300 10.0
2014-Sep-20 23:06 300 10.0
2014-Sep-20 22:56 300 10.0
2014-Sep-20 22:46 300 10.0
2014-Sep-20 22:36 300 10.0
2014-Sep-20 22:26 301 10.0
2014-Sep-20 22:16 300 10.0
2014-Sep-20 22:06 300 10.0
2014-Sep-20 21:56 300 10.0
2014-Sep-20 21:46 300 10.0
2014-Sep-20 21:36 300 10.0
2014-Sep-20 21:26 300 10.0
2014-Sep-20 21:16 300 10.0
2014-Sep-20 21:06 300 10.0
2014-Sep-20 20:56 301 10.0
2014-Sep-20 20:46 300 10.0
2014-Sep-20 20:36 300 10.6
2014-Sep-20 20:26 300 10.6
2014-Sep-20 20:16 300 10.6
2014-Sep-20 20:06 300 10.6
2014-Sep-20 19:56 300 10.6
2014-Sep-20 19:46 300 11.1
2014-Sep-20 19:36 300 11.1
2014-Sep-20 19:26 300 11.1
2014-Sep-20 19:16 300 11.7
2014-Sep-20 19:06 300 11.7
2014-Sep-20 18:56 300 11.7
2014-Sep-20 18:46 300 12.2
2014-Sep-20 18:36 300 12.2
2014-Sep-20 18:26 300 12.8
2014-Sep-20 18:16 300 12.8
2014-Sep-20 18:06 300 12.8
2014-Sep-20 17:56 300 13.3
2014-Sep-20 17:46 300 13.9
2014-Sep-20 17:36 300 13.9
2014-Sep-20 17:26 300 14.4
2014-Sep-20 17:16 300 15.0
2014-Sep-20 17:06 300 15.0
2014-Sep-20 16:56 300 15.6
2014-Sep-20 16:46 300 15.6
2014-Sep-20 16:36 300 16.1
2014-Sep-20 16:26 300 16.1
2014-Sep-20 16:16 300 16.1
2014-Sep-20 16:06 300 16.7
2014-Sep-20 15:56 300 16.7
2014-Sep-20 15:46 300 17.2
2014-Sep-20 15:36 300 17.2
2014-Sep-20 15:26 300 17.8
2014-Sep-20 15:16 300 17.8
2014-Sep-20 15:06 300 17.2
2014-Sep-20 14:56 301 17.2
2014-Sep-20 14:46 301 17.8
2014-Sep-20 14:36 301 0 gusting 1 18.3
2014-Sep-20 14:26 300 18.3
2014-Sep-20 14:16 301 18.3
2014-Sep-20 14:06 301 1 gusting 2 18.3
2014-Sep-20 13:56 300 18.3
2014-Sep-20 13:46 300 18.9
2014-Sep-20 13:36 300 18.9
2014-Sep-20 13:26 300 18.9
2014-Sep-20 13:16 300 18.9
2014-Sep-20 13:06 300 0 gusting 2 18.9
2014-Sep-20 12:56 300 18.9
2014-Sep-20 12:46 300 1 gusting 2 18.3
2014-Sep-20 12:36 300 18.3
2014-Sep-20 12:26 300 18.3
2014-Sep-20 12:16 300 17.8
2014-Sep-20 12:06 299 17.8